CW0736 Weather Reports


Display with metric or nautical units.
time (UTC)temp
F
wind
direction
speed
MPH
gust
MPH
rain 1hr
in
rain 24hr
in
rain mn
in
humidity
%
barometer
mb
20260901104554 68 198 0.0 0.0 0.00 1.34 0.04 98 1014.2
20260901103106 68 198 0.0 0.0 0.00 1.34 0.04 98 1014.1
20260901103002 68 198 0.0 0.0 0.00 1.34 0.04 98 1014.0
20260901101504 68 198 0.0 1.0 0.00 1.34 0.04 98 1014.1
20260901100008 68 198 0.0 0.0 0.00 1.34 0.04 98 1013.9
20260901094517 68 198 0.0 1.0 0.00 1.34 0.04 98 1013.8
20260901093002 68 198 0.0 0.0 0.00 1.34 0.04 98 1013.7
20260901091609 68 198 0.0 3.0 0.00 1.34 0.04 98 1013.9
20260901084605 68 205 0.0 2.0 0.00 1.34 0.04 98 1014.1
20260901083024 68 158 0.0 2.0 0.00 1.34 0.04 98 1013.8
20260901081514 68 158 0.0 1.0 0.01 1.34 0.04 98 1013.7
20260901080015 68 163 0.0 2.0 0.01 1.34 0.04 98 1013.9
20260901074512 68 160 0.0 2.0 0.01 1.34 0.04 98 1014.2
20260901073009 68 210 0.0 2.0 0.01 1.34 0.04 98 1014.5
20260901071508 68 157 0.0 1.0 0.00 1.33 0.03 98 1014.7
20260901070056 68 157 0.0 3.0 0.00 1.33 0.03 98 1014.8
20260901064551 68 220 0.0 3.0 0.00 1.33 0.03 98 1015.2
20260901063050 68 204 0.0 1.0 0.00 1.33 0.03 98 1015.4
20260901061555 68 204 0.0 0.0 0.00 1.33 0.03 98 1015.6
20260901060055 69 204 0.0 0.0 0.00 1.33 0.03 98 1015.8
20260901054552 69 204 0.0 0.0 0.01 1.33 0.03 98 1016.1
20260901053059 69 204 0.0 1.0 0.03 1.33 0.03 98 1015.9
20260901051552 69 204 0.0 1.0 0.03 1.33 0.03 98 1016.1
20260901050051 69 213 0.0 1.0 0.03 1.33 0.03 98 1016.4
20260901044543 69 213 0.0 2.0 0.02 1.32 0.02 98 1016.4
20260901043058 69 129 0.0 1.0 0.00 1.30 0.00 98 1016.5
20260901041549 68 116 0.0 1.0 0.00 1.30 0.00 98 1016.4
20260901040100 68 116 0.0 0.0 0.00 1.30 0.00 98 1016.5
20260901034547 68 116 0.0 0.0 0.00 1.30 1.30 98 1016.5
20260901033038 69 116 0.0 0.0 0.00 1.30 1.30 98 1016.9
20260901031554 69 116 0.0 0.0 0.00 1.30 1.30 98 1016.9
20260901030054 69 116 0.0 1.0 0.00 1.30 1.30 98 1017.1
20260901024518 69 116 0.0 0.0 0.00 1.30 1.30 98 1017.2
20260901023039 68 116 0.0 0.0 0.00 1.30 1.30 98 1017.3
20260901021550 69 116 0.0 0.0 0.00 1.30 1.30 98 1017.5
20260901020052 69 116 0.0 0.0 0.00 1.30 1.30 98 1017.5
20260901014551 69 116 0.0 0.0 0.00 1.30 1.30 98 1017.6
20260901013008 68 116 0.0 0.0 0.00 1.30 1.30 98 1017.5
20260901011558 68 116 0.0 0.0 0.00 1.30 1.30 98 1017.7
20260901010034 68 116 0.0 0.0 0.00 1.30 1.30 98 1017.5
20260901004519 68 116 0.0 0.0 0.00 1.30 1.30 98 1017.2
20260901003010 68 116 0.0 0.0 0.00 1.30 1.30 98 1017.1
20260901001513 69 116 0.0 1.0 0.00 1.30 1.30 98 1017.2
20260901000052 69 116 0.0 0.0 0.00 1.30 1.30 98 1017.1
20260831234633 68 116 0.0 1.0 0.00 1.30 1.30 98 1017.3
20260831234502 69 116 0.0 1.0 0.00 1.30 1.30 98 1017.3
20260831233100 69 116 0.0 1.0 0.00 1.30 1.30 98 1017.4
20260831233002 69 116 0.0 1.0 0.00 1.30 1.30 98 1017.4
20260831231512 69 112 0.0 1.0 0.00 1.30 1.30 97 1017.4
20260831230012 69 112 0.0 2.0 0.01 1.30 1.30 97 1017.4
20260831224505 69 31 1.0 3.0 0.01 1.30 1.30 97 1017.4
20260831223101 69 22 0.0 3.0 0.01 1.30 1.30 98 1017.6
20260831221558 69 159 0.0 2.0 0.01 1.30 1.30 98 1017.5
20260831220100 69 107 0.0 2.0 0.00 1.29 1.30 98 1017.5
20260831220002 69 107 0.0 1.0 0.00 1.29 1.29 98 1017.5
20260831214503 69 107 0.0 2.0 0.00 1.29 1.29 98 1017.6
20260831213003 69 107 0.0 0.0 0.00 1.29 1.29 98 1017.6
20260831211522 69 107 0.0 0.0 0.00 1.29 1.29 98 1017.7
20260831210031 69 104 0.0 1.0 0.01 1.29 1.29 97 1017.6
20260831204524 68 195 0.0 0.0 0.02 1.29 1.29 98 1017.6
20260831203013 68 200 0.0 2.0 0.03 1.29 1.29 98 1017.5
20260831201515 68 133 1.0 3.0 0.06 1.29 1.29 98 1017.4
20260831200025 68 172 1.0 3.0 0.07 1.28 1.28 97 1017.8
20260831194529 68 152 0.0 1.0 0.15 1.27 1.27 97 1018.1
20260831193042 68 167 1.0 3.0 0.32 1.26 1.26 97 1018.2
20260831191533 68 153 0.0 2.0 0.34 1.23 1.23 97 1018.3
20260831190038 68 135 0.0 2.0 0.41 1.21 1.21 97 1018.6
20260831184533 68 184 0.0 2.0 0.38 1.12 1.12 97 1018.5
20260831183104 68 162 0.0 2.0 0.24 0.94 0.95 97 1018.7
20260831183003 68 162 0.0 2.0 0.25 0.94 0.94 97 1018.7
20260831181542 68 162 0.0 1.0 0.21 0.88 0.88 97 1018.7
20260831180049 67 163 0.0 2.0 0.15 0.81 0.80 97 1018.7
20260831174507 68 163 0.0 2.0 0.11 0.74 0.73 97 1018.9
20260831173009 68 195 0.0 3.0 0.07 0.70 0.69 97 1018.9
20260831171555 68 185 1.0 2.0 0.06 0.68 0.67 97 1018.9
20260831170047 68 163 0.0 2.0 0.11 0.66 0.65 97 1019.3
20260831164601 68 171 0.0 2.0 0.09 0.63 0.62 97 1019.5
20260831163027 68 164 0.0 3.0 0.10 0.63 0.62 97 1019.4
20260831161510 67 139 1.0 3.0 0.09 0.61 0.61 97 1019.6
20260831160014 67 168 0.0 2.0 0.05 0.55 0.54 97 1019.7
20260831154511 67 165 0.0 3.0 0.10 0.54 0.53 97 1019.7
20260831153016 67 163 0.0 2.0 0.11 0.53 0.52 97 1019.6
20260831151517 67 196 0.0 2.0 0.13 0.52 0.51 97 1019.6
20260831150023 66 173 0.0 2.0 0.11 0.50 0.49 97 1019.9
20260831144502 66 284 0.0 1.0 0.10 0.44 0.43 97 1019.7
20260831143059 66 284 0.0 2.0 0.13 0.42 0.41 97 1019.7
20260831143001 66 284 0.0 2.0 0.12 0.41 0.41 97 1019.8
20260831141531 66 229 0.0 1.0 0.14 0.39 0.38 97 1019.7
20260831140018 66 186 0.0 2.0 0.22 0.39 0.38 97 1019.4
20260831134531 66 185 1.0 5.0 0.26 0.34 0.33 96 1019.1
20260831133045 66 141 1.0 4.0 0.25 0.28 0.28 96 1019.5
20260831131549 66 248 1.0 4.0 0.20 0.24 0.24 96 1019.5
20260831130006 66 169 1.0 3.0 0.12 0.16 0.16 96 1019.5
20260831124511 65 141 0.0 1.0 0.04 0.07 0.06 96 1020.0
20260831123016 65 141 0.0 1.0 0.01 0.04 0.03 96 1019.9
20260831121529 65 159 0.0 3.0 0.03 0.04 0.03 96 1019.9
20260831120043 66 132 0.0 2.0 0.03 0.04 0.03 96 1020.0
20260831114542 66 192 0.0 3.0 0.02 0.03 0.02 96 1019.8
20260831113100 65 193 0.0 2.0 0.02 0.03 0.02 96 1019.9
20260831113001 65 177 1.0 2.0 0.02 0.03 0.02 96 1019.9
20260831111605 65 172 0.0 2.0 0.00 0.01 0.00 96 1019.8
20260831111503 65 172 0.0 2.0 0.00 0.01 0.00 96 1019.8
20260831110048 65 254 0.0 1.0 0.00 0.01 0.00 95 1019.8